Home   Weather   Sorocaba   Past weeks
Flag for Brazil

Past Weather in Sorocaba, São Paulo, Brazil — Yesterday and Last 2 Weeks

Now
66 °F

Partly sunny.


Feels Like: 66 °F
Forecast: 86 / 66 °F
Wind: 10 mph from Southeast

Location: Campinas Aeroporto

Current Time: Oct 16, 2019 at 6:51:47 am

Latest Report: Oct 16, 2019 at 6:00 am


Visibility: N/A

Pressure: 30.09 "Hg (28.04 "Hg at 602m altitude)

Humidity: 78%

Dew Point: 59 °F

Location of SorocabaLocation

Past Weather in Sorocaba — Graph

°F

Sorocaba Temperature Yesterday

Maximum temperature yesterday: 82 °F (at 1:00 pm)
Minimum temperature yesterday: 70 °F (at 1:00 am)
Average temperature yesterday: 74 °F

High & Low Weather Summary for the Past Weeks

 TemperatureHumidityPressure
High97 °F (Oct 2, 3:00 pm)94% (Oct 8, 6:27 pm)30.15 "Hg (Oct 8, 6:27 pm)
Low61 °F (Oct 1, 5:00 am)13% (Oct 3, 4:00 pm)29.83 "Hg (Oct 5, 5:00 pm)
Average76 °F57%30.02 "Hg
* Reported Oct 1 5:00 am — Oct 16 5:00 am, Sorocaba. Weather by CustomWeather, © 2019

Note: Actual official high and low records may vary slightly from our data, if they occured in-between our weather recording intervals... More about our weather records

Advertising

Sorocaba Weather History for the Previous 24 Hours

Scroll right to see more
 ConditionsComfort  
Time TempWeatherWind HumidityBarometerVisibility
5:00 am
Wed, Oct 16
66 °FClear.5 mph78%30.09 "Hg10 mi
4:00 am66 °FPassing clouds.9 mph78%30.07 "HgN/A
3:00 am68 °FPassing clouds.12 mph73%30.07 "HgN/A
2:00 am68 °FPassing clouds.12 mph78%30.09 "HgN/A
1:00 am68 °FPassing clouds.10 mph78%30.09 "HgN/A
12:00 am70 °FPassing clouds.12 mph73%30.12 "HgN/A
11:00 pm
Tue, Oct 15
70 °FClear.14 mph73%30.12 "Hg10 mi
10:00 pm70 °FClear.13 mph73%30.12 "Hg10 mi
9:00 pm70 °FClear.15 mph73%30.12 "Hg10 mi
8:00 pm72 °FClear.15 mph69%30.09 "Hg10 mi
7:00 pm73 °FClear.18 mph65%30.09 "Hg10 mi
6:00 pm75 °FSunny.14 mph57%30.07 "Hg10 mi
5:00 pm77 °FSunny.15 mph54%30.04 "Hg10 mi
4:00 pm79 °FPassing clouds.15 mph51%30.07 "HgN/A
3:00 pm82 °FPassing clouds.15 mph45%30.07 "HgN/A
2:00 pm81 °FPassing clouds.16 mph48%30.07 "HgN/A
1:00 pm82 °FPassing clouds.13 mph45%30.09 "HgN/A
12:00 pm81 °FPassing clouds.15 mph45%30.09 "HgN/A
11:00 am79 °FPassing clouds.14 mph54%30.12 "HgN/A
10:00 am77 °FPassing clouds.7 mph57%30.12 "HgN/A
9:00 am72 °FPassing clouds.14 mph69%30.12 "HgN/A
8:00 am72 °FPassing clouds.8 mph69%30.12 "HgN/A
7:00 am70 °FPassing clouds.9 mph73%30.09 "HgN/A
6:00 am70 °FScattered clouds.6 mph73%30.09 "HgN/A
Weather by CustomWeather, © 2019

See weather overview